CDT,Max TemperatureF,Mean TemperatureF,Min TemperatureF,Max Dew PointF,MeanDew PointF,Min DewpointF,Max Humidity, Mean Humidity, Min Humidity, Max Sea Level PressureIn, Mean Sea Level PressureIn, Min Sea Level PressureIn, Max VisibilityMiles, Mean VisibilityMiles, Min VisibilityMiles, Max Wind SpeedMPH, Mean Wind SpeedMPH, Max Gust SpeedMPH,PrecipitationIn, CloudCover, Events, WindDirDegrees
2013-10-1,86,78,71,71,69,67,94,81,56,30.02,29.95,29.89,10,9,4,5,0,,0.00,5,,170
2013-10-2,88,78,69,70,68,66,96,78,49,30.05,29.99,29.92,10,10,7,8,1,,0.00,4,,169
2013-10-3,88,79,70,70,68,66,90,74,49,29.99,29.94,29.87,10,10,10,9,2,17,0.00,4,,143
2013-10-4,91,80,69,70,68,61,93,71,36,29.95,29.92,29.87,10,10,9,10,2,16,0.00,1,,186
2013-10-5,82,68,55,72,64,53,100,85,71,30.04,29.96,29.90,10,9,1,21,3,29,0.69,7,Rain,296
2013-10-6,69,60,50,54,48,44,94,76,40,30.03,29.99,29.94,10,10,8,15,5,23,0.01,4,Rain,282
2013-10-7,78,62,46,51,46,42,96,67,30,30.12,30.07,30.01,10,10,10,8,2,,0.00,0,,350
2013-10-8,77,60,45,50,45,41,93,66,29,30.18,30.11,30.05,10,10,10,7,1,,0.00,0,,106
2013-10-9,78,62,45,53,48,43,93,69,34,30.14,30.08,30.04,10,10,8,4,0,,0.00,1,,95
2013-10-10,82,64,48,57,53,47,93,70,39,30.12,30.04,29.97,10,9,6,7,1,,0.00,0,,150
2013-10-11,84,68,55,62,59,55,100,77,44,30.03,29.96,29.88,10,8,2,9,1,,0.00,2,,150
2013-10-12,82,73,64,66,64,60,94,78,54,30.14,30.01,29.93,10,8,2,7,2,,0.09,4,Rain-Thunderstorm,44
2013-10-13,81,72,59,62,56,51,90,66,39,30.28,30.21,30.13,10,10,10,10,2,,0.00,2,,69
2013-10-14,72,64,57,62,53,45,90,64,50,30.22,30.12,30.02,10,10,9,7,2,,0.02,3,Rain,88
2013-10-15,68,65,62,66,64,61,100,93,84,30.01,29.95,29.91,10,7,1,8,1,,1.18,8,Rain,226
2013-10-16,62,58,53,61,52,47,94,84,58,30.09,30.03,29.98,10,9,3,9,5,,0.31,8,Rain,324
2013-10-17,69,58,46,55,49,43,94,78,42,30.07,30.02,29.97,10,10,10,12,2,,0.00,3,,308
2013-10-18,70,56,43,58,49,41,93,80,44,30.06,30.01,29.96,10,10,8,6,1,,0.03,3,Rain,345
2013-10-19,62,52,42,55,45,38,94,75,42,30.13,30.05,29.97,10,10,6,13,5,22,0.01,4,Rain,302
2013-10-20,71,53,35,47,39,35,100,74,31,30.08,30.02,29.93,10,8,0,7,1,,0.00,1,Fog,170
2013-10-21,70,58,45,54,50,43,100,82,46,30.09,30.03,29.98,10,9,2,16,2,24,0.41,6,Rain,339
2013-10-22,69,56,42,52,46,41,100,86,47,30.12,30.04,29.94,10,6,0,8,1,,0.00,2,Fog,267
2013-10-23,68,52,39,45,40,34,93,69,30,30.17,30.09,30.03,10,10,8,6,1,,0.00,0,,277
2013-10-24,66,53,42,46,39,30,93,62,35,30.40,30.23,30.08,10,10,10,12,3,,0.00,1,,8
2013-10-25,57,46,35,36,31,26,89,61,30,30.53,30.43,30.30,10,10,10,7,1,,0.00,0,,80
2013-10-26,62,50,39,52,44,35,93,78,50,30.28,30.18,30.10,10,10,8,4,0,,0.02,4,Rain,-1
2013-10-27,63,56,50,55,51,46,100,84,68,30.10,30.06,30.01,10,7,0,6,0,,0.00,6,Fog,90
2013-10-28,66,60,53,58,56,53,100,89,73,30.20,30.13,30.05,10,6,0,5,1,,0.00,7,Fog,113
2013-10-29,78,68,59,64,61,57,94,82,60,30.17,30.10,30.03,10,9,4,6,2,,0.00,5,,146
2013-10-30,75,68,62,65,63,60,94,84,62,30.07,30.01,29.88,10,10,5,9,1,,0.17,5,Rain,162
2013-10-31,80,66,51,66,61,47,97,85,40,29.88,29.70,29.49,10,8,2,20,3,28,0.35,6,Rain,236